Total_Precipitation_Accumulation
0.62 0.49 0.55 0.64 0.68 0.79 1.15 1.12 1.11 0.78 0.69 0.78 0.82 0.86 0.86 0.81 0.82 0.84 0.86 0.88 0.94 0.99 1.03 1.11 1.21 1.29 1.37 1.44 1.47 1.49 1.45 1.37 1.35 1.35 1.42 1.52 1.54 1.63 1.73 1.79 1.92 1.93 1.81 1.74
0.59 0.41 0.44 0.55 0.56 0.60 0.75 0.81 0.84 0.67 0.73 0.73 0.73 0.68 0.67 0.67 0.67 0.73 0.81 0.86 0.88 0.90 0.91 0.93 1.01 1.10 1.15 1.26 1.32 1.37 1.36 1.36 1.32 1.28 1.29 1.37 1.38 1.40 1.47 1.59 1.71 1.82 1.84 1.79
0.71 0.43 0.55 0.74 0.70 0.71 0.77 0.82 0.85 0.95 0.90 0.68 0.63 0.64 0.68 0.65 0.61 0.65 0.72 0.77 0.78 0.80 0.85 0.88 0.92 0.95 1.02 1.10 1.16 1.23 1.25 1.26 1.30 1.33 1.32 1.34 1.35 1.34 1.40 1.49 1.61 1.72 1.78 1.81
0.87 0.58 0.77 0.74 0.56 0.60 0.68 0.74 0.76 0.82 0.77 0.69 0.68 0.68 0.65 0.63 0.62 0.60 0.64 0.73 0.77 0.77 0.77 0.79 0.81 0.82 0.86 0.91 0.99 1.07 1.12 1.17 1.20 1.27 1.28 1.27 1.30 1.31 1.37 1.44 1.53 1.63 1.70 1.68
1.06 0.75 0.54 0.44 0.42 0.62 0.72 0.78 0.74 0.72 0.67 0.63 0.55 0.49 0.52 0.53 0.58 0.64 0.66 0.71 0.76 0.76 0.75 0.72 0.71 0.72 0.76 0.81 0.86 0.93 1.04 1.16 1.21 1.26 1.28 1.28 1.33 1.33 1.35 1.42 1.48 1.47 1.51 1.54
1.11 0.93 0.62 0.51 0.34 0.38 0.56 0.82 0.58 0.58 0.62 0.61 0.55 0.66 0.67 0.59 0.59 0.60 0.58 0.60 0.66 0.67 0.66 0.67 0.71 0.73 0.76 0.83 0.86 0.94 1.05 1.16 1.21 1.25 1.34 1.35 1.34 1.34 1.31 1.36 1.43 1.38 1.33 1.32
0.90 0.88 0.56 0.45 0.28 0.26 0.74 1.00 0.59 0.58 0.63 0.62 0.70 0.82 0.75 0.65 0.62 0.61 0.60 0.59 0.59 0.59 0.64 0.73 0.79 0.81 0.84 0.88 0.96 1.03 1.08 1.13 1.16 1.16 1.23 1.29 1.26 1.25 1.27 1.27 1.27 1.22 1.16 1.14
0.66 0.89 0.71 0.43 0.34 0.66 0.89 0.60 0.53 0.52 0.56 0.61 0.65 0.61 0.61 0.63 0.62 0.58 0.61 0.57 0.54 0.55 0.59 0.64 0.72 0.81 0.86 0.92 0.95 0.94 0.97 1.05 1.14 1.14 1.15 1.19 1.22 1.22 1.25 1.23 1.18 1.11 1.05 1.02
0.71 0.81 0.73 0.59 0.63 0.67 0.59 0.54 0.50 0.53 0.54 0.54 0.56 0.55 0.57 0.59 0.56 0.54 0.56 0.57 0.54 0.54 0.53 0.51 0.57 0.67 0.82 0.91 0.93 0.93 0.93 1.00 1.08 1.11 1.13 1.18 1.18 1.19 1.19 1.16 1.11 1.05 0.99 0.94
0.54 0.53 0.49 0.48 0.46 0.47 0.49 0.52 0.49 0.47 0.46 0.44 0.49 0.50 0.51 0.51 0.51 0.50 0.50 0.52 0.53 0.51 0.49 0.50 0.52 0.55 0.65 0.74 0.81 0.89 0.94 0.96 1.00 1.07 1.11 1.11 1.10 1.13 1.17 1.20 1.15 1.06 1.00 0.96
0.48 0.42 0.39 0.39 0.40 0.42 0.40 0.35 0.31 0.30 0.31 0.38 0.44 0.46 0.48 0.51 0.52 0.53 0.53 0.53 0.54 0.53 0.49 0.50 0.49 0.50 0.53 0.57 0.65 0.74 0.82 0.88 0.91 0.96 1.03 1.06 1.05 1.11 1.18 1.21 1.27 1.29 1.19 1.10
0.62 0.46 0.53 0.48 0.36 0.31 0.30 0.28 0.28 0.27 0.26 0.28 0.35 0.41 0.39 0.42 0.47 0.53 0.54 0.52 0.51 0.48 0.46 0.48 0.48 0.50 0.52 0.54 0.59 0.65 0.71 0.76 0.82 0.86 0.91 0.95 0.97 1.01 1.10 1.14 1.20 1.22 1.24 1.24
0.55 0.40 0.38 0.35 0.27 0.25 0.26 0.26 0.26 0.28 0.31 0.32 0.31 0.33 0.37 0.39 0.40 0.42 0.45 0.46 0.50 0.50 0.48 0.46 0.44 0.46 0.51 0.54 0.56 0.58 0.65 0.72 0.75 0.78 0.84 0.88 0.90 0.92 0.96 0.98 0.99 1.03 1.12 1.19
0.38 0.35 0.33 0.26 0.27 0.25 0.25 0.26 0.25 0.26 0.27 0.25 0.25 0.27 0.31 0.33 0.33 0.34 0.43 0.49 0.50 0.47 0.45 0.44 0.42 0.43 0.47 0.51 0.53 0.52 0.54 0.62 0.68 0.70 0.75 0.80 0.84 0.88 0.91 0.90 0.88 0.89 0.97 1.08
0.31 0.34 0.37 0.31 0.26 0.24 0.25 0.26 0.27 0.24 0.21 0.20 0.21 0.24 0.28 0.32 0.35 0.38 0.42 0.44 0.41 0.40 0.41 0.40 0.42 0.45 0.46 0.48 0.50 0.48 0.48 0.53 0.60 0.65 0.68 0.73 0.75 0.79 0.83 0.83 0.83 0.82 0.79 0.88
0.34 0.31 0.29 0.28 0.29 0.29 0.30 0.29 0.27 0.25 0.24 0.24 0.25 0.28 0.30 0.33 0.36 0.38 0.38 0.38 0.40 0.44 0.44 0.41 0.42 0.45 0.43 0.44 0.45 0.46 0.46 0.54 0.59 0.60 0.61 0.64 0.66 0.69 0.73 0.75 0.77 0.76 0.77 0.83
0.42 0.39 0.36 0.36 0.35 0.34 0.32 0.31 0.32 0.32 0.29 0.28 0.30 0.30 0.30 0.30 0.30 0.33 0.37 0.40 0.44 0.48 0.48 0.48 0.50 0.47 0.44 0.42 0.44 0.46 0.46 0.49 0.55 0.53 0.53 0.56 0.60 0.63 0.67 0.70 0.71 0.71 0.75 0.85
0.46 0.47 0.47 0.48 0.45 0.39 0.33 0.31 0.32 0.33 0.33 0.33 0.31 0.29 0.30 0.32 0.35 0.37 0.40 0.41 0.40 0.41 0.43 0.47 0.50 0.47 0.42 0.41 0.44 0.45 0.47 0.49 0.50 0.51 0.52 0.55 0.60 0.62 0.66 0.68 0.65 0.65 0.65 0.71
0.39 0.39 0.39 0.39 0.38 0.37 0.35 0.35 0.36 0.35 0.34 0.33 0.32 0.32 0.32 0.34 0.36 0.37 0.36 0.36 0.37 0.40 0.43 0.44 0.48 0.41 0.36 0.38 0.45 0.44 0.46 0.48 0.49 0.50 0.53 0.60 0.63 0.59 0.61 0.62 0.62 0.61 0.62 0.62
0.34 0.34 0.33 0.33 0.32 0.35 0.37 0.36 0.35 0.35 0.35 0.36 0.35 0.34 0.32 0.32 0.32 0.32 0.31 0.33 0.38 0.43 0.44 0.45 0.42 0.37 0.37 0.40 0.47 0.44 0.44 0.46 0.49 0.49 0.52 0.56 0.57 0.58 0.58 0.60 0.60 0.60 0.60 0.61
0.32 0.33 0.34 0.34 0.34 0.35 0.38 0.40 0.40 0.40 0.40 0.39 0.38 0.38 0.36 0.33 0.31 0.31 0.30 0.32 0.34 0.35 0.37 0.40 0.38 0.40 0.45 0.51 0.52 0.45 0.45 0.48 0.50 0.52 0.53 0.55 0.56 0.57 0.56 0.57 0.59 0.60 0.60 0.62
0.33 0.34 0.35 0.35 0.35 0.36 0.38 0.40 0.41 0.40 0.38 0.37 0.36 0.35 0.34 0.33 0.31 0.29 0.30 0.34 0.37 0.39 0.38 0.35 0.38 0.49 0.57 0.60 0.51 0.47 0.49 0.51 0.53 0.53 0.54 0.55 0.56 0.57 0.55 0.55 0.57 0.56 0.57 0.59
0.32 0.33 0.34 0.37 0.39 0.38 0.35 0.35 0.37 0.36 0.36 0.35 0.36 0.36 0.36 0.35 0.34 0.35 0.37 0.34 0.33 0.38 0.37 0.37 0.46 0.57 0.61 0.54 0.47 0.47 0.49 0.51 0.54 0.55 0.55 0.55 0.56 0.58 0.59 0.58 0.56 0.56 0.57 0.57
0.28 0.30 0.33 0.34 0.34 0.33 0.33 0.34 0.34 0.34 0.34 0.34 0.34 0.35 0.36 0.35 0.31 0.31 0.35 0.35 0.34 0.36 0.35 0.38 0.46 0.51 0.52 0.47 0.46 0.48 0.50 0.52 0.53 0.55 0.55 0.55 0.56 0.58 0.59 0.58 0.57 0.53 0.54 0.54
0.29 0.30 0.31 0.32 0.32 0.34 0.36 0.34 0.30 0.30 0.30 0.30 0.29 0.29 0.30 0.33 0.36 0.33 0.30 0.30 0.32 0.34 0.33 0.34 0.38 0.41 0.41 0.42 0.47 0.51 0.53 0.55 0.59 0.61 0.59 0.59 0.58 0.58 0.58 0.58 0.58 0.56 0.54 0.52
0.28 0.29 0.31 0.33 0.36 0.37 0.37 0.34 0.33 0.32 0.33 0.32 0.30 0.29 0.30 0.31 0.32 0.30 0.29 0.29 0.31 0.33 0.33 0.33 0.35 0.36 0.37 0.40 0.44 0.48 0.51 0.53 0.55 0.55 0.55 0.56 0.56 0.58 0.57 0.55 0.54 0.54 0.53 0.51
0.23 0.24 0.25 0.26 0.29 0.32 0.35 0.35 0.37 0.37 0.37 0.38 0.38 0.33 0.32 0.33 0.32 0.32 0.31 0.31 0.32 0.33 0.33 0.34 0.36 0.38 0.40 0.42 0.44 0.45 0.47 0.49 0.51 0.53 0.55 0.56 0.57 0.57 0.55 0.54 0.54 0.52 0.51 0.50